User: anonymous   Login
Location: Unspecified
(48.1170°N, 0.0000°E)
Time: 05:09:39
(UTC+00:00)
Language:

CUTE 1.7 + AOD 2 - Orbit

View from above orbital plane
View from above orbital plane
View from above satellite
View from above satellite

Ground track
Ground track

The orbit data is extracted from the following two-line orbital elements,

1 32785U 08021C   19233.82427675  .00000101  00000-0  16455-4 0  9992
2 32785  97.5519 230.5209 0014394  54.4627 305.7931 14.88332504613223
Epoch (UTC): 21 August 2019 19:46:57
Eccentricity: 0.0014394
inclination: 97.5519°
perigee height: 593 km
apogee height: 613 km
right ascension of ascending node: 230.5209°
argument of perigee: 54.4627°
revolutions per day: 14.88332504
mean anomaly at epoch: 305.7931°
orbit number at epoch: 61322

The dashed part of the orbit path shows where the satellite is in the earth's shadow,  

DLR